Wind_Speed
6 5 4 4 4 3 3 2 2 2 2 2 1 1 1 1 0 1 1 0 0 1 1 1 1 1 2 2 2 4 4 5 5 6 6 6 7 8 8 8 9 10 10
5 4 3 3 3 3 3 2 1 2 1 1 1 1 1 1 1 1 1 1 1 1 2 2 2 3 3 3 3 3 4 5 6 5 6 6 7 7 9 10 10 11 11
5 4 3 3 3 3 2 2 1 1 1 1 1 1 2 2 2 2 2 2 3 3 3 3 3 4 5 5 5 4 6 6 6 7 7 7 9 9 9 10 11 12 13
5 4 3 3 2 3 3 3 2 1 0 0 0 1 3 3 3 3 3 4 3 4 4 5 5 5 6 7 7 7 7 8 8 8 8 9 9 10 10 11 11 12 13
4 4 3 3 2 2 2 3 2 3 2 1 1 2 3 3 3 4 4 4 4 5 5 6 6 7 7 8 9 9 10 10 10 10 10 10 11 11 12 13 13 13 13
4 4 2 2 2 1 2 2 3 3 3 2 2 3 4 4 4 5 5 5 5 6 7 7 8 8 8 9 9 10 11 11 11 12 12 12 12 12 13 14 14 14 14
5 4 4 3 2 2 2 2 3 3 3 4 4 4 5 5 6 6 7 7 7 8 8 8 9 9 9 9 10 10 11 11 12 12 12 13 13 14 14 15 15 16 16
4 4 4 3 2 3 3 3 3 4 5 5 5 5 5 6 7 7 7 8 8 8 8 9 9 9 10 10 11 11 11 11 12 13 13 14 15 16 15 15 16 17 18
5 5 4 3 3 4 4 4 4 5 5 6 6 6 7 7 7 7 7 8 8 9 10 10 10 10 10 11 11 12 13 14 14 14 14 16 16 16 16 16 16 17 18
5 4 5 4 4 4 4 5 5 5 6 6 7 7 8 8 8 8 9 9 9 9 10 11 11 11 12 12 13 14 14 15 16 16 16 17 17 17 18 18 18 18 19
6 6 6 5 5 5 5 5 6 6 7 7 8 8 9 10 10 10 10 10 11 11 11 11 12 13 13 14 14 15 16 16 17 18 18 18 18 18 18 19 19 19 19
7 7 6 6 5 5 6 7 7 7 8 9 9 10 11 11 11 11 11 11 11 12 12 13 13 14 14 15 15 16 16 17 18 18 19 19 20 20 20 20 21 21 21
8 8 7 7 7 7 7 8 8 9 9 10 10 11 12 12 12 12 13 12 13 13 13 14 14 15 16 16 17 17 18 18 18 19 20 20 21 21 21 22 23 24 24
9 9 9 8 8 9 9 9 9 9 10 11 11 12 12 13 13 13 13 14 14 15 15 15 16 17 17 17 18 19 19 19 18 19 20 20 22 22 23 24 24 25 26
10 10 10 9 9 9 9 9 10 10 10 11 12 12 13 13 13 13 13 14 15 16 16 16 17 18 18 19 19 20 20 19 20 21 22 23 24 24 25 25 25 26 27
11 10 10 10 10 9 10 10 10 10 11 12 13 13 13 12 12 13 14 15 15 16 17 18 18 19 19 20 20 21 21 21 22 23 24 24 25 25 25 25 26 27 28
11 10 10 10 10 10 10 11 10 11 12 13 13 14 13 13 13 14 15 15 15 16 17 19 19 19 20 21 21 21 23 23 23 23 24 25 26 26 27 27 28 29 29
11 11 11 11 11 11 12 12 11 11 12 14 14 14 14 14 14 15 15 15 16 17 18 19 20 20 20 20 21 22 23 24 24 24 24 25 25 26 26 27 27 28 28
12 12 12 12 12 13 13 13 13 13 14 15 15 15 15 15 16 16 16 16 17 17 18 19 19 20 20 21 22 22 23 24 24 24 24 25 25 26 27 27 28 28 29
13 13 13 14 14 14 14 15 16 15 15 16 16 15 15 16 16 16 17 17 17 18 18 19 19 20 21 22 23 23 23 24 25 25 25 26 27 28 28 29 30 30 31
14 15 14 14 15 15 16 17 18 18 17 17 17 17 17 17 17 17 17 18 19 19 19 20 21 21 22 23 23 24 25 25 26 26 27 27 27 28 28 29 30 31 32
15 16 16 16 16 17 18 19 19 19 19 18 18 18 18 18 18 19 19 19 19 20 20 21 22 22 23 24 24 25 25 26 26 27 27 27 28 29 30 31 32 32 33
16 17 19 18 18 18 19 20 20 20 19 19 18 18 19 19 19 20 20 20 20 21 21 22 22 23 23 23 24 25 26 26 27 27 28 28 29 30 31 31 32 33 34
18 19 20 20 20 20 20 20 20 20 20 19 19 20 20 20 20 21 21 21 22 22 22 23 24 24 24 24 25 26 27 27 27 28 29 30 31 31 32 32 33 34 34
19 19 20 20 20 21 21 21 21 21 20 21 21 21 20 21 21 22 22 22 23 23 24 25 25 26 26 26 27 28 28 28 29 29 30 31 32 32 33 33 33 33 33
19 19 20 20 21 21 21 21 21 21 21 22 22 21 21 22 22 22 22 23 23 24 25 25 25 26 26 27 28 29 29 30 30 31 32 32 32 33 33 33 33 34 35
Wind_Direction
102 106 108 111 112 113 128 133 143 166 171 157 134 123 120 94 114 155 123 223 96 65 216 232 236 260 260 241 254 257 249 245 242 247 247 249 252 251 252 251 253 251 251
92 100 106 103 105 96 102 123 142 173 170 181 211 257 268 289 291 255 259 268 270 278 284 270 260 274 276 272 278 274 267 264 256 257 254 256 257 258 257 256 256 256 257
79 96 101 94 96 92 80 75 97 187 200 180 231 266 275 284 279 275 275 271 268 272 272 273 273 274 275 276 278 273 272 272 268 262 260 263 263 262 261 260 258 258 257
72 85 89 79 75 75 68 61 47 24 265 193 259 287 292 290 288 283 283 279 280 283 286 281 279 279 275 271 273 277 279 273 272 269 267 273 271 267 264 263 264 261 258
49 56 66 66 68 65 45 36 21 9 11 357 337 322 311 299 294 283 281 284 286 285 287 287 282 281 275 273 274 276 278 276 273 272 273 276 277 272 271 268 268 269 264
39 43 43 47 43 36 33 20 3 357 1 346 322 315 314 312 302 298 292 288 288 289 291 288 286 284 279 279 279 281 278 276 275 273 274 277 278 277 274 273 271 270 268
24 25 20 22 16 18 5 356 354 339 333 335 327 315 312 309 299 293 291 288 285 285 287 286 286 285 281 281 282 284 283 280 275 274 275 277 279 279 277 274 272 270 270
9 7 359 0 338 329 319 321 323 330 331 328 325 325 317 304 297 296 293 289 284 284 288 289 287 285 281 280 280 282 282 282 278 275 277 279 280 280 279 277 275 272 271
3 353 343 338 319 318 318 321 315 319 329 329 323 317 314 308 301 297 296 295 289 286 285 289 289 290 286 285 284 283 283 283 281 278 280 280 280 279 277 277 277 275 273
351 344 342 332 315 309 312 316 315 316 319 318 315 309 306 304 299 296 293 292 289 287 287 286 285 286 286 286 285 285 285 284 281 279 279 279 279 280 277 277 279 278 275
348 341 338 330 318 309 309 315 315 314 316 312 308 307 304 302 297 293 291 290 289 287 286 284 281 282 284 287 286 285 285 283 283 280 280 280 281 281 279 279 280 279 278
347 345 344 336 321 310 310 314 316 312 309 307 306 303 301 300 298 293 291 289 289 288 286 285 285 283 284 285 286 286 286 284 284 282 281 282 283 282 281 280 280 279 278
348 348 341 333 323 314 313 312 311 307 307 306 305 301 299 295 296 292 290 290 289 288 286 288 287 287 286 286 287 287 287 287 287 285 284 284 284 284 283 282 280 279 279
345 341 335 329 323 317 311 309 309 308 311 311 309 304 300 297 295 292 290 289 289 289 288 289 290 290 289 286 287 287 286 286 287 286 287 287 287 286 284 284 283 283 282
340 338 335 330 325 320 316 311 309 310 312 314 312 310 306 300 295 293 292 291 289 289 291 290 290 289 288 288 288 288 288 288 287 286 286 287 287 286 286 285 284 284 284
333 332 330 327 324 323 319 315 313 313 315 313 313 312 311 306 303 299 296 295 293 293 293 292 293 291 289 287 288 289 288 290 290 289 289 288 289 288 287 287 286 286 284
330 329 329 328 327 325 323 319 315 313 314 315 313 313 313 309 306 304 302 298 296 295 295 293 292 293 292 292 290 288 289 289 289 290 291 290 288 287 288 289 288 286 286
326 325 326 325 324 321 320 322 320 319 320 318 315 312 312 309 309 306 303 300 298 298 297 297 295 293 295 293 291 292 291 290 290 290 290 289 289 290 290 290 290 290 288
328 325 322 320 319 317 317 318 319 318 320 321 319 316 312 310 309 308 306 305 303 300 299 299 300 300 300 298 296 295 294 293 292 293 294 293 293 293 292 293 294 294 294
327 325 322 319 317 316 316 315 316 316 315 317 318 316 313 312 312 311 310 309 307 305 304 303 305 304 301 302 301 299 297 296 296 297 296 296 296 295 295 294 294 294 294
321 322 321 320 318 316 315 314 313 313 312 312 313 313 313 311 310 311 312 309 307 305 303 303 303 302 301 301 300 299 298 297 297 296 295 294 295 296 297 297 296 295 296
314 317 318 317 315 313 313 312 311 311 309 309 310 311 312 312 311 310 311 310 308 307 307 306 305 303 302 302 302 301 299 299 298 297 296 297 297 297 298 297 297 297 297
309 314 315 315 313 311 311 311 310 311 310 308 308 309 310 311 312 311 311 309 308 307 306 306 306 304 303 303 303 303 302 301 300 298 298 297 297 297 298 298 298 298 297
305 310 313 314 312 312 310 310 309 310 309 308 307 308 309 311 312 311 310 309 308 307 307 307 306 305 303 302 302 302 302 302 300 299 298 298 297 297 298 298 298 298 298
303 305 308 308 309 311 309 309 309 309 309 309 308 308 309 310 312 312 310 310 310 310 308 308 307 307 306 305 305 305 304 303 302 300 300 300 300 299 299 299 299 299 299
302 303 306 310 311 312 311 311 311 309 308 309 309 309 308 310 311 311 311 310 309 309 309 308 307 307 306 306 306 306 305 303 303 302 302 302 301 300 300 300 300 300 299
Height
5897 5897 5897 5897 5897 5897 5897 5897 5897 5897 5897 5897 5897 5896 5896 5896 5896 5896 5896 5895 5895 5895 5895 5894 5894 5894 5894 5894 5894 5894 5894 5894 5894 5894 5894 5894 5894 5895 5895 5895 5895 5895 5895
5898 5898 5898 5897 5897 5897 5897 5897 5897 5897 5897 5897 5896 5896 5896 5896 5895 5895 5895 5895 5895 5895 5894 5894 5894 5893 5893 5893 5893 5893 5893 5893 5893 5893 5893 5893 5893 5893 5893 5893 5893 5893 5893
5898 5898 5898 5898 5898 5898 5897 5897 5897 5897 5896 5896 5896 5896 5896 5895 5895 5895 5895 5894 5894 5894 5893 5893 5893 5893 5892 5892 5892 5892 5892 5892 5892 5891 5891 5891 5891 5891 5891 5891 5891 5891 5891
5899 5898 5898 5898 5898 5898 5898 5897 5897 5896 5896 5896 5895 5895 5895 5895 5894 5894 5894 5893 5893 5893 5892 5892 5892 5891 5891 5891 5891 5890 5890 5890 5890 5889 5889 5889 5889 5889 5888 5888 5888 5888 5888
5899 5899 5899 5898 5898 5898 5898 5897 5897 5896 5895 5895 5895 5894 5894 5894 5893 5893 5893 5893 5892 5892 5891 5890 5890 5890 5890 5889 5889 5889 5888 5888 5887 5887 5887 5887 5886 5886 5886 5885 5885 5885 5884
5900 5899 5899 5898 5898 5898 5898 5897 5897 5896 5896 5895 5894 5894 5894 5893 5893 5892 5892 5891 5891 5890 5890 5889 5889 5888 5888 5887 5887 5886 5886 5885 5885 5884 5884 5884 5883 5883 5882 5882 5882 5881 5881
5901 5900 5899 5899 5898 5898 5897 5897 5896 5896 5895 5895 5894 5894 5893 5892 5892 5891 5891 5890 5890 5889 5888 5888 5887 5886 5886 5885 5885 5884 5883 5883 5882 5882 5881 5881 5880 5880 5879 5878 5878 5877 5877
5901 5900 5899 5898 5898 5898 5897 5897 5896 5895 5895 5894 5893 5893 5892 5892 5891 5890 5889 5888 5888 5887 5887 5886 5885 5884 5883 5883 5882 5882 5881 5880 5879 5878 5878 5877 5877 5876 5875 5875 5874 5873 5873
5901 5900 5899 5898 5898 5897 5897 5896 5895 5895 5894 5893 5892 5892 5891 5890 5889 5888 5887 5887 5886 5885 5884 5884 5883 5882 5881 5880 5880 5879 5878 5877 5876 5876 5875 5874 5873 5872 5872 5871 5870 5869 5869
5901 5899 5899 5898 5897 5896 5896 5895 5894 5894 5893 5892 5891 5890 5890 5888 5887 5887 5886 5885 5884 5883 5882 5881 5880 5879 5878 5877 5877 5876 5875 5874 5873 5872 5871 5870 5869 5868 5867 5866 5866 5865 5864
5900 5899 5898 5897 5896 5895 5895 5894 5893 5892 5892 5891 5890 5889 5888 5886 5885 5884 5883 5882 5881 5880 5879 5878 5877 5876 5875 5874 5873 5872 5871 5870 5869 5868 5867 5866 5865 5864 5863 5862 5861 5860 5859
5900 5898 5897 5896 5895 5894 5893 5892 5891 5891 5890 5889 5887 5886 5885 5884 5882 5881 5880 5879 5878 5877 5876 5875 5874 5873 5872 5871 5870 5868 5867 5866 5864 5863 5862 5861 5860 5859 5858 5857 5856 5855 5854
5899 5898 5896 5895 5894 5893 5892 5891 5890 5889 5887 5886 5885 5884 5883 5881 5880 5878 5877 5876 5875 5874 5873 5872 5871 5869 5868 5867 5866 5864 5863 5861 5860 5859 5857 5856 5855 5854 5853 5852 5851 5849 5848
5898 5897 5895 5894 5892 5891 5890 5889 5888 5887 5885 5884 5883 5881 5879 5878 5876 5875 5874 5873 5872 5871 5869 5868 5867 5865 5864 5862 5861 5860 5858 5857 5855 5854 5853 5851 5850 5848 5847 5846 5844 5843 5842
5897 5896 5894 5893 5891 5890 5888 5887 5886 5885 5883 5882 5880 5879 5877 5875 5873 5872 5871 5870 5868 5867 5865 5864 5862 5861 5859 5858 5856 5855 5853 5851 5850 5849 5847 5846 5844 5842 5841 5839 5838 5836 5835
5896 5895 5893 5891 5890 5888 5887 5885 5884 5883 5881 5879 5878 5876 5874 5872 5870 5869 5867 5866 5864 5863 5861 5859 5857 5856 5854 5852 5850 5849 5847 5846 5844 5843 5841 5839 5838 5836 5834 5833 5831 5829 5827
5895 5893 5892 5890 5888 5887 5885 5884 5882 5881 5879 5877 5875 5873 5871 5869 5867 5865 5864 5862 5860 5858 5856 5854 5852 5851 5849 5847 5845 5843 5841 5840 5838 5836 5835 5833 5831 5829 5827 5825 5824 5822 5820
5893 5892 5890 5889 5887 5885 5884 5882 5880 5878 5876 5874 5872 5870 5868 5866 5864 5862 5860 5858 5856 5854 5852 5850 5848 5846 5843 5841 5839 5838 5836 5834 5832 5830 5828 5826 5824 5822 5820 5818 5816 5814 5812
5892 5890 5888 5887 5885 5883 5882 5880 5878 5876 5874 5872 5869 5867 5865 5863 5860 5858 5856 5854 5852 5849 5847 5845 5843 5841 5838 5836 5834 5832 5830 5828 5826 5824 5822 5819 5817 5815 5813 5811 5809 5806 5804
5890 5888 5886 5885 5883 5881 5879 5877 5875 5873 5871 5869 5866 5864 5861 5859 5857 5855 5852 5850 5848 5845 5843 5841 5838 5836 5834 5831 5829 5826 5824 5822 5819 5817 5815 5812 5810 5808 5806 5803 5801 5799 5796
5888 5886 5884 5882 5880 5878 5876 5874 5872 5870 5867 5865 5863 5860 5858 5855 5853 5851 5848 5846 5843 5841 5839 5836 5834 5831 5829 5826 5824 5821 5818 5815 5813 5810 5808 5806 5803 5800 5798 5795 5793 5790 5787
5886 5884 5882 5880 5878 5875 5873 5871 5868 5866 5863 5861 5859 5857 5854 5851 5849 5847 5844 5841 5839 5837 5834 5831 5829 5826 5824 5821 5818 5815 5812 5809 5806 5804 5801 5799 5796 5793 5790 5787 5784 5781 5778
5883 5881 5879 5877 5874 5872 5869 5867 5864 5861 5859 5857 5855 5852 5850 5848 5845 5842 5840 5837 5834 5832 5829 5827 5824 5821 5818 5815 5812 5809 5806 5803 5800 5797 5794 5791 5788 5785 5782 5778 5775 5772 5769
5879 5877 5875 5873 5870 5868 5865 5863 5860 5857 5855 5853 5851 5848 5846 5843 5841 5838 5835 5832 5830 5827 5824 5821 5818 5815 5812 5809 5806 5803 5800 5796 5793 5790 5787 5784 5780 5777 5773 5770 5766 5763 5759
5876 5873 5871 5869 5867 5864 5861 5859 5856 5854 5851 5849 5846 5844 5842 5839 5836 5833 5831 5828 5825 5821 5818 5815 5812 5809 5806 5803 5800 5796 5793 5789 5786 5782 5779 5775 5772 5768 5764 5761 5757 5753 5750
5871 5869 5867 5865 5863 5860 5857 5855 5852 5849 5847 5845 5842 5840 5837 5834 5832 5828 5825 5822 5819 5816 5813 5809 5806 5803 5800 5796 5793 5789 5786 5782 5778 5774 5770 5767 5763 5759 5756 5752 5748 5744 5741